Powrót do katalogu

COSMOS 839 DEB

AktywnyUNKNOWN
NORAD 10464·DEBRIS·🇷🇺 Russia

Wystrzelony Jul 8, 1976 z Plesetsk Cosmodrome

Loading…

Następne Przeloty (najbliższe 24 godziny)

TLE

ŚwieżeSource: Space-Track

Epoka: Sep 13, 2026, 08:30 UTC

1 10464U 76067AH  26256.35452174  .00000230  00000-0  77812-3 0  9996
2 10464  65.8335  26.9471 0716865 186.5323 204.5118 12.46940749278191

Śledź COSMOS 839 DEB w czasie rzeczywistym z AllMySat

Download on the App Store